STARLINK-2521, 48648

Orbit data source: Space-Track

STARLINK-2521, 48648 is a payload satellite owned by SpaceX/Seattle (US) in LEO that was launched on Wed, 26 May 2021 UTC via an FALCON 9 launch vehicle from the Air Force Eastern Test Range (AFETR). Payload-class satellites include a variety of spacecraft equipped with specific instruments for various scientific and technological missions. These include communications satellites like Starlink; space stations such as the ISS; scientific satellites like the Hubble; Earth observation satellites from companies like Planet Labs, Umbra, and HawkEye 360; GPS; miniature CubeSats for education and research; and military/defense satellites.

Loading next visibility...
Identifier
48648, 2021-044L
Orbit
LEO
Country
Flag of USUS
Related business
Manufacturer
SpaceX/Seattle
Mission
Operational Commercial Communications
Bus & Motor
STARLINK, Unknown motor
Mass
260 kg wet, ~248 kg dry
Launch date (UTC)
2021-05-26 (5 years ago)
Launch vehicle
FALCON 9
Launch site
Air Force Eastern Test Range (AFETR)
Object type
Payload
Rocket body
Debris
Shape & HBR
Box + 1 Pan, 10.1 m
Radar Cross Section
13.562 m², Large (>1 m²)

Expand to show TLE details & history
Last TLE update: 3 days ago

TLE from 3 days ago
0 STARLINK-2521
1 48648U 21044L   26170.93148034  .00001378  00000-0  56168-4 0  9998
2 48648  53.1608 358.3548 0000987  79.3207 280.7905 15.31702455279498
Epoch: 2026-06-19T22:21Z
TLE epoch observation values (Epoch: 2026-06-19T22:21:19.901Z)
Latitude
-0.00006°
Longitude
114.86846°
Altitude
471.507 km
Speed
7.632 km/s
True Right ascension
23h 53m 25s
True Declination
0° 00' 00"
Sunlit
Object was in daylight at epoch
Visualization orbit readout
Latitude
Unknown
Longitude
Unknown
Altitude
Unknown
Speed
Unknown
Apparent Right ascension
Unknown
Apparent Declination
Unknown
Sunlit
N/A
Visualization observer readout
Local Sidereal Time
21:39:35
Azimuth
Unknown
Elevation
Unknown
Doppler factor
Unknown
Orbital elements
Apogee altitude
471.665 km
Perigee altitude
470.313 km
Semi-major axis
6,849.126 km
Eccentricity
0.0001
Inclination
53.1608°
RAAN
358.3548°
Arg. of periapsis
79.3207°
True anomaly
280.77939°
Mean anomaly
280.7905°
Eccentric anomaly
280.78494°
Mean motion
3.82904 °/min
Orbital period
94.02 mins
BSTAR
0.000056168
Loading maneuver chart data...
Computing Atmospheric mass density...

Documentation

Showing up to 5 results
|